Edinburgh Airport, United Kingdom

4:58 PM BST on June 27, 2017 (GMT +0100)
Edinburgh Airport

Weather History for EGPH - June, 2013

Change the Weather History Date:

Saturday, June 15, 2013

  Actual Average Record
Temperature  
Mean Temperature 54 °F -  
Max Temperature 59 °F 64 °F 69 °F (2006)
Min Temperature 48 °F 50 °F 39 °F (2015)
Degree Days  
Heating Degree Days 12    
Growing Degree Days 4 (Base 50)    
Moisture  
Dew Point 46 °F    
Average Humidity 78    
Maximum Humidity 100    
Minimum Humidity 59    
Precipitation  
Precipitation 0.00 in 0.07 in - ()
Sea Level Pressure  
Sea Level Pressure 29.48 in    
Wind  
Wind Speed 12 mph ()    
Max Wind Speed 24 mph    
Max Gust Speed 34 mph    
Visibility 6.2 miles    
Events Rain    
Averages and records for this station are not official NWS values.
T = Trace of Precipitation, MM = Missing Value Source: Averaged Metar Reports

Daily Weather History Graph

Daily Weather History Graph

Search for Another Location

Airport or City:

Trip Planner

Search our weather history database for the weather conditions in past years. The results will help you decide how hot, cold, wet, or windy it might be!

Date:

Astronomy

Jun. 15, 2013 Rise Set
Actual Time 4:26 AM BST 10:01 PM BST
Civil Twilight 3:24 AM BST 11:03 PM BST
Nautical Twilight 1:46 AM BST 12:41 AM BST
Astronomical Twilight Sun does not set Sun does not set
Moon 11:54 AM BST (6/15) 12:27 AM BST (6/15)
Length of Visible Light 19h 38m
Length of Day
17h 34m
Waxing Crescent, 37% of the Moon is Illuminated
Jun 15
Waxing Crescent
Jun 16
First Quarter
Jun 23
Full
Jun 30
Last Quarter
Jul 8
New

Hourly Weather History & Observations

Time (BST) Temp. Dew Point Humidity Pressure Visibility Wind Dir Wind Speed Gust Speed Precip Events Conditions
12:20 AM 51.8 °F 50.0 °F 94% 29.56 in 6.2 mi East 8.1 mph - N/A Rain Light Rain
12:50 AM 53.6 °F 50.0 °F 88% 29.56 in 6.2 mi East 9.2 mph - N/A Rain Light Rain
1:20 AM 53.6 °F 48.2 °F 82% 29.53 in 6.2 mi SE 11.5 mph - N/A Rain Light Rain
1:50 AM 53.6 °F 48.2 °F 82% 29.50 in 6.2 mi ESE 12.7 mph - N/A Rain Light Rain
2:20 AM 51.8 °F 48.2 °F 88% 29.50 in 6.2 mi ESE 13.8 mph - N/A Rain Light Rain
2:50 AM 51.8 °F 46.4 °F 82% 29.47 in 6.2 mi ESE 12.7 mph - N/A   Mostly Cloudy
3:20 AM 51.8 °F 46.4 °F 82% 29.44 in 6.2 mi SE 13.8 mph - N/A   Mostly Cloudy
3:50 AM 51.8 °F 48.2 °F 88% 29.44 in 6.2 mi SE 12.7 mph - N/A   Mostly Cloudy
4:20 AM 51.8 °F 48.2 °F 88% 29.44 in 6.2 mi SE 12.7 mph - N/A Rain Light Rain
4:50 AM 50.0 °F 48.2 °F 94% 29.44 in 6.2 mi SSE 8.1 mph - N/A   Mostly Cloudy
5:20 AM 51.8 °F 48.2 °F 88% 29.44 in 6.2 mi Variable 3.5 mph - N/A Rain Light Rain
5:50 AM 50.0 °F 46.4 °F 87% 29.42 in 6.2 mi SSE 8.1 mph - N/A   Mostly Cloudy
6:20 AM 51.8 °F 46.4 °F 82% 29.42 in 6.2 mi South 10.4 mph - N/A   Mostly Cloudy
6:50 AM 50.0 °F 44.6 °F 82% 29.44 in 6.2 mi SSW 13.8 mph - N/A   Mostly Cloudy
7:20 AM 50.0 °F 42.8 °F 76% 29.44 in 6.2 mi SSW 20.7 mph - N/A   Partly Cloudy
7:50 AM 51.8 °F 42.8 °F 71% 29.44 in 6.2 mi SW 17.3 mph - N/A   Partly Cloudy
8:20 AM 50.0 °F 42.8 °F 76% 29.44 in 6.2 mi SSW 15.0 mph - N/A   Partly Cloudy
8:50 AM 50.0 °F 42.8 °F 76% 29.44 in 6.2 mi SW 17.3 mph - N/A   Partly Cloudy
9:20 AM 51.8 °F 42.8 °F 71% 29.44 in 6.2 mi SW 16.1 mph - N/A   Partly Cloudy
9:50 AM 53.6 °F 44.6 °F 72% 29.44 in 6.2 mi SW 17.3 mph - N/A   Partly Cloudy
10:20 AM 53.6 °F 44.6 °F 72% 29.44 in 6.2 mi SW 17.3 mph 29.9 mph N/A   Partly Cloudy
10:50 AM 55.4 °F 44.6 °F 67% 29.44 in 6.2 mi SW 21.9 mph 34.5 mph N/A   Partly Cloudy
11:20 AM 57.2 °F 44.6 °F 63% 29.44 in 6.2 mi SW 24.2 mph - N/A   Scattered Clouds
11:50 AM 55.4 °F 42.8 °F 63% 29.44 in 6.2 mi SW 20.7 mph - N/A   Mostly Cloudy
12:20 PM 59.0 °F 44.6 °F 59% 29.47 in 6.2 mi SW 20.7 mph - N/A   Partly Cloudy
12:50 PM 57.2 °F 44.6 °F 63% 29.47 in 6.2 mi WSW 19.6 mph - N/A   Scattered Clouds
1:20 PM 55.4 °F 44.6 °F 67% 29.47 in 6.2 mi SW 18.4 mph - N/A   Partly Cloudy
1:50 PM 57.2 °F 44.6 °F 63% 29.47 in 6.2 mi WSW 19.6 mph - N/A   Partly Cloudy
2:20 PM 57.2 °F 44.6 °F 63% 29.47 in 6.2 mi SW 20.7 mph - N/A   Mostly Cloudy
2:50 PM 57.2 °F 42.8 °F 59% 29.47 in 6.2 mi SW 18.4 mph - N/A   Mostly Cloudy
3:20 PM 55.4 °F 44.6 °F 67% 29.50 in 6.2 mi WSW 18.4 mph - N/A   Mostly Cloudy
3:50 PM 57.2 °F 44.6 °F 63% 29.50 in 6.2 mi SW 20.7 mph - N/A   Mostly Cloudy
4:20 PM 53.6 °F 42.8 °F 67% 29.50 in 6.2 mi SW 18.4 mph - N/A   Mostly Cloudy
4:50 PM 53.6 °F 44.6 °F 72% 29.50 in 6.2 mi SW 17.3 mph - N/A Rain Light Rain Showers
5:20 PM 51.8 °F 46.4 °F 82% 29.50 in 6.2 mi SSW 16.1 mph - N/A   Scattered Clouds
5:50 PM 53.6 °F 44.6 °F 72% 29.50 in 6.2 mi SW 17.3 mph - N/A   Mostly Cloudy
6:20 PM 51.8 °F 46.4 °F 82% 29.47 in 6.2 mi SSW 15.0 mph - N/A   Mostly Cloudy
6:50 PM 51.8 °F 46.4 °F 82% 29.47 in 6.2 mi SW 13.8 mph - N/A   Mostly Cloudy
7:20 PM 51.8 °F 48.2 °F 88% 29.50 in 6.2 mi SW 13.8 mph - N/A   Mostly Cloudy
7:50 PM 53.6 °F 48.2 °F 82% 29.50 in 6.2 mi SW 12.7 mph - N/A   Partly Cloudy
8:20 PM 53.6 °F 46.4 °F 77% 29.50 in 6.2 mi SW 13.8 mph - N/A   Scattered Clouds
8:50 PM 53.6 °F 48.2 °F 82% 29.50 in 6.2 mi SW 11.5 mph - N/A   Scattered Clouds
9:20 PM 51.8 °F 48.2 °F 88% 29.53 in 6.2 mi WSW 13.8 mph - N/A   Scattered Clouds
9:50 PM 51.8 °F 48.2 °F 88% 29.53 in 6.2 mi West 6.9 mph - N/A   Scattered Clouds
10:20 PM 51.8 °F 50.0 °F 94% 29.53 in 6.2 mi West 5.8 mph - N/A   Mostly Cloudy
10:50 PM 50.0 °F 48.2 °F 94% 29.56 in 6.2 mi West 4.6 mph - N/A   Scattered Clouds
11:20 PM 48.2 °F 48.2 °F 100% 29.56 in - West 5.8 mph - N/A   Clear
11:50 PM 48.2 °F 48.2 °F 100% 29.56 in 6.2 mi WSW 5.8 mph - N/A   Partly Cloudy